This demonstration page uses our WeatherBlox Daily Observations layout. Learn more.

Left ArrowRight Arrow

34.02893, -84.19858

Hourly Observations for February 26, 2017

Temp ( °F °C ) Dew Point ( °F °C ) Humidity (%) Winds ( mph kmh ) Pressure ( in mb ) Visibility ( mi km ) Precip ( " mm )
12:53 am 00:53 Clear 42 5.6 19 -7.2 40 40 NNW 7 11 30.07 1018 10 16 0.00 0.00
1:53 am 01:53 Clear 40 4.4 19 -7.2 43 43 WNW 8 13 30.09 1019 10 16 0.00 0.00
2:53 am 02:53 Clear 39 3.9 19 -7.2 45 45 WNW 6 9 30.09 1019 10 16 0.00 0.00
3:53 am 03:53 Clear 37 2.8 19 -7.2 48 48 WNW 7 11 30.10 1019 10 16 0.00 0.00
4:53 am 04:53 Clear with Light Snow 37 2.8 19 -7.2 48 48 NW 9 15 30.12 1020 9 14 0.00 0.03
5:53 am 05:53 Clear with Light Snow 35 1.7 20 -6.7 54 54 NW 10 17 30.15 1021 9 14 0.00 0.03
6:53 am 06:53 Clear 34 1.1 20 -6.7 56 56 WNW 7 11 30.19 1022 10 16 0.00 0.03
7:53 am 07:53 Sunny 36 2.2 20 -6.7 52 52 NW 6 9 30.21 1023 10 16 0.00 0.00
8:53 am 08:53 Sunny 40 4.4 20 -6.7 45 45 NNW 8 13 30.24 1024 10 16 0.00 0.00
9:53 am 09:53 Sunny 44 6.7 19 -7.2 37 37 NNW 7 11 30.24 1024 10 16 0.00 0.00
10:53 am 10:53 Sunny 48 8.9 16 -8.9 28 28 NW 7 11 30.24 1024 10 16 0.00 0.00
11:53 am 11:53 Sunny 52 11.1 16 -8.9 24 24 VRB 5 7 30.24 1024 10 16 0.00 0.00
12:53 pm 12:53 Sunny 56 13.3 18 -7.8 22 22 NNW 7 11 30.23 1024 10 16 0.00 0.00
1:53 pm 13:53 Sunny 57 13.9 14 -10 18 18 Calm 30.21 1023 10 16 0.00 0.00
2:53 pm 14:53 Sunny 60 15.6 16 -8.9 18 18 W 9 15 30.19 1022 10 16 0.00 0.00
3:53 pm 15:53 Sunny 61 16.1 16 -8.9 17 17 NNW 8 13 30.18 1022 10 16 0.00 0.00
4:53 pm 16:53 Sunny 61 16.1 16 -8.9 17 17 NNE 5 7 30.18 1022 10 16 0.00 0.00
5:53 pm 17:53 Sunny 59 15 15 -9.4 18 18 VRB 3 6 30.19 1023 10 16 0.00 0.00
6:53 pm 18:53 Clear 51 10.6 20 -6.7 29 29 Calm 30.23 1024 10 16 0.00 0.00
7:53 pm 19:53 Clear 46 7.8 24 -4.4 42 42 Calm 30.24 1024 10 16 0.00 0.00
8:53 pm 20:53 Clear 45 7.2 24 -4.4 44 44 Calm 30.25 1024 10 16 0.00 0.00
9:53 pm 21:53 Clear 42 5.6 27 -2.8 55 55 Calm 30.26 1025 10 16 0.00 0.00
10:53 pm 22:53 Clear 41 5 28 -2.2 60 60 Calm 30.26 1025 10 16 0.00 0.00
11:53 pm 23:53 Clear 41 5 27 -2.8 57 57 Calm 30.23 1024 10 16 0.00 0.00

Powered by AerisWeather